星链-3525 (STARLINK-3525 )

导读 | 豆包AI

STARLINK-3525是美国SpaceX公司于2022年2月21日发射的星链卫星,属于Starlink V1.0平台,运行在近地轨道,近地点约355千米,远地点约357千米,轨道倾角43°,绕地球一周约需91.7分钟。作为星链全球卫星互联网项目的一员,它为全球,尤其是偏远地区提供高速低延迟互联网服务,助力缩小数字鸿沟,同时也可支持军事、航空等领域通信需求,推动互联网普及,带来广泛经济效益。

基本信息
目录编号:
51733
目录名称:
STARLINK-3525
国际标识:
2022-016V
轨道中心:
EARTH
卫星名称:
星链-3525
卫星全名:
星链-3525 (STARLINK-3525 )
卫星状态:
在轨 (已飞行1482 天)
发射日期:
2022-02-21 UTC
国别 :
美国 (US)
星等 :
--
轨道信息
数据来源 国际轨道数据 AOE轨道数据
星历时间 2026-03-14T05:51:37+0800
22小时前
查看轨道信息
2026-03-12T15:00:00+0800
2天前
查看轨道信息
半长轴 6917.877km 6917.899km
偏心率 0.000171 0.0001668
轨道倾角 53.217° 53.216°
近地点辐角 92.790° 68.705°
升交点赤经 300.185° 307.454°
平近点角 267.329° 131.497°
近地点 538.557km 538.608km
远地点 540.923km 540.916km
周期 95.437分钟 95.438分钟
每日圈数 15.088412 15.088341
详细信息
固有亮度:
5
最大亮度:
2.5
卫星平台:
Starlink v1.5
覆盖范围:
全球
运营商:
太空探索技术公司
运营商所在国:
美国
制造商(研发单位):
太空探索技术公司
制造商所在国:
美国
使用方式:
暂无
卫星简介
星链(Starlink)计划是由太空探索技术公司(SpaceX)提出的一个巨型低轨卫星互联网星座项目,计划在2019年至2024年间在太空搭建由约1.2万颗卫星组成的“星链”网络,其中1584颗将部署在地球上空550千米处的近地轨道,并从2020年开始工作。该卫星仍在工作。
2D轨道图
3D轨道图
轨道高度分析图
轨道倾角分析图
轨道综合分析图
查看轨道综合分析图